EW5186 Weather Reports


Display with metric or nautical units.
time (UTC)temp
F
wind
direction
speed
MPH
gust
MPH
rain 1hr
in
rain 24hr
in
rain mn
in
humidity
%
barometer
mb
20260904021505 71 76 0.0 1.0 0.00 0.35 0.35 94 1013.2
20260904020002 71 62 0.0 0.0 0.00 0.35 0.35 95 1013.7
20260904014503 70 62 0.0 0.0 0.00 0.35 0.35 94 1014.0
20260904013002 71 61 0.0 0.0 0.00 0.35 0.35 94 1014.0
20260904011500 71 61 0.0 0.0 0.00 0.35 0.35 94 1013.8
20260904010101 71 61 0.0 0.0 0.00 0.35 0.35 93 1013.7
20260904004542 72 61 0.0 0.0 0.00 0.35 0.35 93 1013.7
20260904003046 72 62 0.0 1.0 0.00 0.35 0.35 93 1013.7
20260904001524 72 62 0.0 0.0 0.00 0.35 0.35 93 1013.7
20260904000024 72 60 0.0 0.0 0.00 0.35 0.35 92 1013.2
20260903234522 73 60 0.0 0.0 0.00 0.35 0.35 92 1013.1
20260903233013 74 60 0.0 0.0 0.00 0.35 0.35 91 1013.0
20260903231512 75 60 0.0 1.0 0.00 0.35 0.35 89 1013.1
20260903230011 76 60 0.0 0.0 0.00 0.35 0.35 87 1013.0
20260903224522 77 60 0.0 1.0 0.00 0.35 0.35 86 1013.2
20260903223015 78 60 0.0 1.0 0.00 0.35 0.35 84 1013.3
20260903221510 79 149 0.0 2.0 0.00 0.35 0.35 83 1013.4
20260903220008 80 187 0.0 0.0 0.00 0.35 0.35 81 1013.2
20260903214550 81 145 0.0 3.0 0.00 0.35 0.35 80 1013.3
20260903213050 83 141 1.0 4.0 0.00 0.35 0.35 76 1013.1
20260903211533 84 127 0.0 0.0 0.00 0.35 0.35 78 1013.1
20260903210038 81 129 0.0 0.0 0.00 0.35 0.35 81 1013.1
20260903204510 81 129 0.0 0.0 0.00 0.35 0.35 80 1013.2
20260903203021 81 129 0.0 0.0 0.00 0.35 0.35 79 1013.4
20260903201550 83 102 0.0 0.0 0.00 0.35 0.35 73 1013.3
20260903200047 82 336 0.0 1.0 0.00 0.35 0.35 77 1013.4
20260903194528 82 321 0.0 2.0 0.00 0.35 0.35 76 1013.5
20260903193024 80 360 0.0 2.0 0.00 0.35 0.35 78 1013.6
20260903191506 79 322 0.0 2.0 0.00 0.35 0.35 79 1013.7
20260903190002 80 243 0.0 1.0 0.00 0.35 0.35 78 1014.0
20260903184552 80 217 0.0 2.0 0.00 0.35 0.35 80 1014.1
20260903183044 80 126 0.0 2.0 0.00 0.35 0.35 80 1014.3
20260903181523 79 337 1.0 4.0 0.00 0.35 0.35 78 1014.2
20260903180029 79 28 0.0 3.0 0.00 0.35 0.35 80 1014.4
20260903174503 79 245 0.0 2.0 0.00 0.35 0.35 79 1014.4
20260903173004 79 328 2.0 7.0 0.00 0.35 0.35 78 1014.3
20260903171549 79 353 1.0 7.0 0.00 0.35 0.35 79 1014.5
20260903170046 77 319 0.0 2.0 0.00 0.35 0.35 82 1014.4
20260903164542 76 258 0.0 2.0 0.00 0.35 0.35 83 1014.4
20260903163043 76 210 0.0 1.0 0.00 0.35 0.35 85 1014.9
20260903161548 76 229 0.0 3.0 0.00 0.35 0.35 85 1015.1
20260903160039 76 357 0.0 3.0 0.00 0.35 0.35 86 1015.2
20260903154537 75 82 0.0 3.0 0.00 0.35 0.35 86 1015.1
20260903153037 75 23 0.0 4.0 0.00 0.35 0.35 86 1015.4
20260903151533 76 184 0.0 2.0 0.00 0.35 0.35 87 1015.5
20260903150019 75 8 1.0 5.0 0.00 0.35 0.35 85 1015.4
20260903144513 75 145 0.0 5.0 0.00 0.35 0.35 88 1015.3
20260903143108 74 283 0.0 3.0 0.00 0.35 0.35 89 1015.3
20260903141553 73 132 0.0 1.0 0.00 0.35 0.35 90 1015.6
20260903140053 73 70 0.0 2.0 0.00 0.35 0.35 91 1015.6
20260903134551 73 326 0.0 3.0 0.00 0.35 0.35 91 1015.7
20260903133056 73 122 0.0 3.0 0.00 0.35 0.35 95 1015.7
20260903131604 71 162 0.0 1.0 0.00 0.35 0.35 95 1016.3
20260903130044 70 103 0.0 1.0 0.00 0.35 0.35 96 1016.2
20260903124542 69 108 0.0 1.0 0.00 0.35 0.35 96 1016.4
20260903123022 68 65 0.0 1.0 0.00 0.35 0.35 96 1016.5
20260903121530 68 82 0.0 0.0 0.00 0.35 0.35 96 1016.9
20260903120008 68 82 0.0 0.0 0.00 0.35 0.35 96 1017.0
20260903114506 68 83 0.0 0.0 0.00 0.35 0.35 96 1017.0
20260903113008 67 82 0.0 1.0 0.00 0.35 0.35 96 1017.0
20260903111504 67 83 0.0 0.0 0.00 0.35 0.35 96 1017.1
20260903110003 67 83 0.0 0.0 0.00 0.35 0.35 96 1016.9
20260903104502 67 83 0.0 1.0 0.00 0.35 0.35 96 1016.8
20260903103101 67 83 0.0 0.0 0.00 0.35 0.35 96 1016.9
20260903101603 66 83 0.0 0.0 0.00 0.35 0.35 96 1016.5
20260903100040 66 83 0.0 0.0 0.00 0.35 0.35 96 1016.3
20260903094538 66 83 0.0 0.0 0.00 0.35 0.35 96 1016.1
20260903093030 66 83 0.0 0.0 0.00 0.35 0.35 96 1016.3
20260903091529 65 83 0.0 0.0 0.00 0.35 0.35 96 1016.5
20260903090024 65 83 0.0 0.0 0.00 0.35 0.35 96 1016.6
20260903084524 65 83 0.0 0.0 0.00 0.35 0.35 96 1016.5
20260903083024 65 83 0.0 0.0 0.00 0.35 0.35 96 1016.7
20260903081520 65 82 0.0 0.0 0.00 0.35 0.35 95 1016.5
20260903080018 65 83 0.0 0.0 0.01 0.35 0.35 95 1016.9
20260903074518 65 332 0.0 0.0 0.01 0.35 0.35 95 1017.2
20260903073008 65 332 0.0 0.0 0.02 0.35 0.35 95 1017.2
20260903071506 65 332 0.0 0.0 0.12 0.35 0.35 95 1017.3
20260903070004 64 332 0.0 0.0 0.31 0.34 0.34 95 1017.3
20260903064503 64 130 0.0 2.0 0.34 0.34 0.34 94 1016.7
20260903063101 64 91 0.0 2.0 0.34 0.34 0.34 94 1017.1
20260903061605 64 86 0.0 1.0 0.26 0.26 0.26 94 1018.3
20260903060055 65 31 0.0 0.0 0.03 0.03 0.03 93 1018.6
20260903054553 65 31 0.0 0.0 0.00 0.00 0.00 92 1018.9
20260903053035 65 31 0.0 0.0 0.00 0.00 0.00 91 1019.0
20260903051533 65 31 0.0 1.0 0.00 0.00 0.00 90 1019.0
20260903050013 66 12 0.0 0.0 0.00 0.00 0.00 88 1019.4
20260903044509 66 12 0.0 1.0 0.00 0.00 0.00 88 1019.6
20260903043048 66 309 0.0 1.0 0.00 0.00 0.00 88 1019.7
20260903041546 66 249 0.0 0.0 0.00 0.00 0.00 87 1019.9
20260903040026 66 91 0.0 2.0 0.00 0.00 0.00 87 1019.7
20260903034537 66 124 0.0 4.0 0.00 0.00 0.00 86 1019.6
20260903033007 66 109 0.0 2.0 0.00 0.00 0.00 86 1019.1
20260903031507 65 64 0.0 3.0 0.00 0.00 0.00 85 1019.8
20260903030045 65 82 0.0 2.0 0.00 0.00 0.00 85 1020.0
20260903024549 65 69 0.0 2.0 0.00 0.00 0.00 84 1020.4
20260903023032 65 124 0.0 1.0 0.00 0.00 0.00 84 1020.6